Location: Middleton
(53.5459°N, 2.2019°W)
Time: 21:28:15
(UTC+01:00)

ISS - Visible Passes

Search period start: 16 July 2018 00:00
Search period end: 26 July 2018 00:00
Orbit: 402 x 408 km, 51.6° (Epoch: 17 July)

Date Brightness Start Highest point End Pass type
(mag) Time Alt. Az. Time Alt. Az. Time Alt. Az.
16 Jul -3.3 01:31:55 35° S 01:32:23 38° SSE 01:35:28 10° E visible
16 Jul -3.8 03:05:22 10° W 03:08:39 63° S 03:11:55 10° E visible
17 Jul -2.6 00:41:11 25° SE 00:41:11 25° SE 00:43:19 10° E visible
17 Jul -3.8 02:13:49 13° WSW 02:16:37 60° S 02:19:52 10° E visible
17 Jul -3.6 03:49:43 10° W 03:52:56 50° SSW 03:56:09 10° ESE visible
17 Jul -1.8 23:50:12 14° ESE 23:50:12 14° ESE 23:51:02 10° E visible
18 Jul -3.7 01:22:47 23° SW 01:24:34 52° SSE 01:27:48 10° E visible
18 Jul -3.8 02:57:39 10° W 03:00:53 59° S 03:04:09 10° ESE visible
18 Jul -1.6 22:58:10 11° ESE 22:58:10 11° ESE 22:58:27 10° ESE visible
19 Jul -3.5 00:30:34 19° SW 00:32:33 41° SSE 00:35:41 10° E visible
19 Jul -3.9 02:05:34 10° W 02:08:50 63° S 02:12:06 10° E visible
19 Jul -3.2 03:42:01 10° W 03:45:05 36° SSW 03:48:09 10° SE visible
19 Jul -3.1 23:37:35 10° SW 23:40:33 31° SSE 23:43:31 10° E visible
20 Jul -3.9 01:13:30 10° WSW 01:16:46 62° S 01:20:02 10° E visible
20 Jul -3.6 02:49:53 10° W 02:53:04 46° SSW 02:56:16 10° ESE visible
20 Jul -2.6 22:45:56 10° SSW 22:48:35 23° SSE 22:51:15 10° E visible
21 Jul -3.8 00:21:27 10° WSW 00:24:41 55° S 00:27:55 10° E visible
21 Jul -3.8 01:57:47 10° W 02:01:00 56° S 02:04:15 10° ESE visible
21 Jul -2.7 03:34:24 10° W 03:37:08 24° SSW 03:39:50 10° SSE visible
21 Jul -3.6 23:29:27 10° WSW 23:32:37 45° SSE 23:35:47 10° E visible
22 Jul -3.9 01:05:39 10° W 01:08:55 62° S 01:12:11 10° ESE visible
22 Jul -3.2 02:42:08 10° W 02:45:08 32° SSW 02:48:08 10° SE visible
22 Jul -3.2 22:37:32 10° SW 22:40:34 35° SSE 22:43:36 10° E visible
23 Jul -3.9 00:13:32 10° W 00:16:48 63° S 00:20:04 10° E visible
23 Jul -3.5 01:49:57 10° W 01:53:06 43° SSW 01:53:15 42° S visible
23 Jul -3.8 23:21:27 10° WSW 23:24:41 58° S 23:27:56 10° E visible
24 Jul -3.8 00:57:48 10° W 01:01:00 53° SSW 01:01:36 44° SSE visible
24 Jul -3.6 22:29:23 10° WSW 22:32:34 49° SSE 22:35:46 10° E visible
25 Jul -3.9 00:05:38 10° W 00:08:53 60° S 00:10:36 25° ESE visible
25 Jul -1.8 01:42:09 10° W 01:43:13 17° WSW 01:43:13 17° WSW visible
25 Jul -3.9 23:13:28 10° W 23:16:44 63° S 23:19:48 11° E visible
